weather.gov     
National Weather Service

Terminal Aerodrome Forecast
NWS Homepage
This page is being discontinued on March 12, 2014.
The same data is available at this site. Please update your bookmarks.
Thank you, and we apologize for the inconvenience.
Please send an email to SR-SRH.Webmaster@noaa.gov with any concerns.


Current Version
Previous Version:    01  02  03  04  05  06  07  08  09  10  11  12  13  14  15  16  17  18  19  20  21  22  23  24  25  26  27  28  29  30  
   31  32  33  
[Printable]
060
FTUS46 KOTX 251734
TAFCOE
TAF
KCOE 251734Z 2518/2618 03013KT P6SM FEW080 BKN200
     FM252200 07014G20KT P6SM VCSH SCT040 BKN080 OVC120
     FM260100 17015G22KT P6SM -SHRA SCT030 BKN050 OVC070
     FM260700 22020G30KT P6SM -RA OVC035
     FM261000 22024G36KT P6SM BKN050
     FM261500 22014KT P6SM SCT050 BKN100
      AMD LTD TO CLD AND VIS=


060
FTUS46 KOTX 251734
TAFCOE
TAF
KCOE 251734Z 2518/2618 03013KT P6SM FEW080 BKN200
     FM252200 07014G20KT P6SM VCSH SCT040 BKN080 OVC120
     FM260100 17015G22KT P6SM -SHRA SCT030 BKN050 OVC070
     FM260700 22020G30KT P6SM -RA OVC035
     FM261000 22024G36KT P6SM BKN050
     FM261500 22014KT P6SM SCT050 BKN100
      AMD LTD TO CLD AND VIS=




U.S. Dept. of Commerce
NOAA National Weather Service
1325 East West Highway
Silver Spring, MD 20910
E-mail: w-nws.webmaster@noaa.gov
Page last modified: May 16, 2007
NATIONAL WEATHER SERVICE: for Safety, for Work, for Fun - FOR LIFE